Location: Bieujac
(44.5398°N, 0.1549°W)
Time: 09:50:00
(UTC+00:00)

NOSS 3-3 (A) - Pass Details

Date: 27 February 2020
Orbit: 836 x 1376 km, 63.4° (Epoch: 06 April)

Event Time Altitude Azimuth Distance (km) Brightness Sun altitude
Exits shadow 03:45:56 40° 139° (SE) 1,309 4.7 -31.8°
Maximum altitude 03:46:48 43° 116° (ESE) 1,274 4.8 -31.7°
Drops below altitude 10° 03:52:49 10° 48° (NE) 2,783 7.1 -30.7°
Sets 03:55:41 0° 42° (NE) 3,823 8.0 -30.2°
